SCP
0 0 0 0 0 0 0 0 0 0 0 0 0 0 0 0 0 0 0 0 0 0 0 0 0 0 0 0 0 0 0 0 0 0 0 0 0 0 0 0 0 0 0 0
0 0 0 0 0 0 0 0 0 0 0 0 0 0 0 0 0 0 0 0 0 0 0 0 0 0 0 0 0 0 0 0 0 0 0 0 0 0 0 0 0 0 0 0
0 0 0 0 0 0 0 0 0 0 0 0 0 0 0 0 0 0 0 0 0 0 0 0 0 0 0 0 0 0 0 0 0 0 0 0 0 0 0 0 0 0 0 0
0 0 0 0 0 0 0 0 0 0 0 0 0 0 0 0 0 0 0 0 0 0 0 0 0 0 0 0 0 0 0 0 0 0 0 0 0 0 0 0 0 0 0 0
0 0 0 0 0 0 0 0 0 0 0 0 0 0 0 0 0 0 0 0 0 0 0 0 0 0 0 0 0 0 0 0 0 0 0 0 0 0 0 0 0 0 0 0
0 0 0 0 0 0 0 0 0 0 0 0 0 0 0 0 0 0 0 0 0 0 0 0 0 0 0 0 0 0 0 0 0 0 0 0 0 0 0 0 0 0 0 0
0 0 0 0 0 0 0 0 0 0 0 0 0 0 0 0 0 0 0 0 0 0 0 0 0 0 0 0 0 0 0 0 0 0 0 0 0 0 0 0 0 0 0 0
0 0 0 0 0 0 0 0 0 0 0 0 0 0 0 0 0 0 0 0 0 0 0 0 0 0 0 0 0 0 0 0 0 0 0 0 0 0 0 0 0 0 0 0
0 0 0 0 0 0 0 0 0 0 0 0 0 0 0 0 0 0 0 0 0 0 0 0 0 0 0 0 0 0 0 0 0 0 0 0 0 0 0 0 0 0 0 0
0 0 0 0 0 0 0 0 0 0 0 0 0 0 0 0 0 0 0 0 0 0 0 0 0 0 0 0 0 0 0 0 0 0 0 0 0 0 0 -0 0 0 0 0
0 0 0 0 0 0 0 0 0 0 0 0 0 0 0 0 0 0 0 0 0 0 0 0 0 0 0 0 0 0 0 0 0 0 0 0 0 0 0 0 0 0 0 0
0 0 0 0 0 0 0 0 0 0 0 0 0 0 0 0 0 0 0 0 0 0 0 0 0 0 0 0 0 0 0 0 0 -0 0 0 0 0 0 0 0 0 0 0
0 0 0 0 0 0 0 0 0 0 0 0 0 0 0 0 0 0 0 0 0 0 0 0 0 0 0 0 0 0 0 0 0 -0 0 0 0 0 0 0 0 0 0 0
0 0 0 0 0 0 0 0 0 0 0 0 0 0 0 0 0 0 0 0 0 0 0 0 0 0 0 0 0 0 0 0 0 -0 -0 -0 0 0 0 0 0 0 0 0
0 0 0 0 0 0 0 0 0 0 0 0 0 0 0 0 0 0 0 0 0 0 0 0 0 0 0 0 0 0 0 0 0 0 -0 -0 -0 0 0 0 0 0 0 0
0 0 0 0 0 0 0 0 0 0 0 0 0 0 0 0 0 0 0 0 0 0 0 0 0 0 0 0 0 0 0 0 0 0 0 0 0 0 0 0 0 0 0 0
0 0 0 0 0 0 0 0 0 0 0 0 0 0 0 0 0 0 0 0 0 0 0 0 0 0 0 0 0 0 0 0 0 0 0 0 0 0 0 0 0 0 0 0
0 0 0 0 0 0 0 0 0 0 0 0 0 0 0 0 0 0 0 0 0 0 0 0 0 0 0 0 0 0 0 0 0 0 0 0 0 0 0 0 0 0 0 0
0 0 0 0 0 0 0 0 0 0 0 0 0 0 0 0 0 0 0 0 0 0 0 0 0 0 0 0 0 0 0 0 0 0 0 0 0 0 0 0 0 0 0 0
0 0 0 0 0 0 0 0 0 0 0 0 0 0 0 0 0 0 0 0 0 0 0 0 0 0 0 0 0 0 0 0 0 0 0 0 0 0 0 0 0 0 0 0
0 0 0 0 0 0 0 0 0 0 0 0 0 0 0 0 0 0 0 0 0 0 0 0 0 0 0 0 0 0 0 0 0 0 0 0 0 0 0 0 0 0 0 0
0 0 0 0 0 0 0 0 0 0 0 0 0 0 0 0 0 0 0 0 0 0 0 0 0 0 0 0 0 0 0 0 0 0 0 0 0 0 0 0 0 0 0 0
0 0 0 0 0 0 0 0 0 0 0 0 0 0 0 0 0 0 0 0 0 0 0 0 0 -0 0 0 0 0 0 0 0 0 0 0 0 0 0 0 0 0 0 0
0 0 0 0 0 0 0 0 0 0 0 0 0 0 0 0 0 0 0 0 0 0 0 -0 -0 -0 0 0 0 0 0 0 0 0 0 0 0 0 0 0 0 0 0 0
0 0 0 0 0 0 0 0 0 0 0 0 0 0 0 0 0 0 -0 0 0 0 0 -0 -0 -0 -0 0 0 0 0 0 0 0 0 0 0 0 0 0 0 0 0 0
0 0 0 0 0 0 0 0 0 0 0 0 0 0 0 0 0 0 -0 -0 -0 -0 -0 -0 -0 -0 -0 -0 0 0 0 0 0 0 0 0 0 0 0 0 0 0 0 0
0 0 0 0 0 0 0 0 0 0 0 0 0 0 0 0 0 -0 -0 -0 -0 -0 -0 -0 -0 -0 -0 -0 -0 0 0 0 0 0 0 0 0 0 0 0 0 0 0 0
Wind_Speed
4 5 3 4 5 4 6 7 7 7 5 6 8 10 11 12 11 11 9 8 7 6 5 5 5 5 6 6 6 7 8 9 8 8 8 8 8 8 8 8 9 8 9 9
3 3 3 4 5 3 4 4 5 3 4 1 7 9 11 12 12 11 10 9 8 7 6 6 5 6 6 6 6 6 8 8 7 8 8 8 8 8 8 8 8 9 9 8
3 5 3 4 4 3 2 2 4 5 4 7 8 11 13 13 12 11 11 10 9 8 6 6 6 6 6 5 6 7 7 7 7 7 8 7 8 8 8 8 8 9 8 8
1 3 3 6 2 2 1 2 2 2 4 6 7 7 7 8 11 11 10 10 9 8 7 6 5 5 5 6 6 6 6 6 6 7 7 7 8 8 7 6 6 6 7 7
1 1 6 5 1 1 1 3 1 5 8 8 11 8 5 6 8 9 9 9 8 7 7 6 6 6 6 6 5 6 6 6 6 6 7 7 7 6 5 5 6 6 5 7
2 1 4 5 3 1 2 3 2 7 10 11 9 5 5 8 10 11 10 9 9 8 8 7 6 6 6 6 5 5 5 5 5 6 6 6 6 5 4 5 6 6 7 7
3 3 6 4 3 1 1 5 3 7 10 9 4 4 9 12 11 11 11 10 10 9 7 6 6 6 6 6 5 5 5 6 6 5 5 5 5 5 5 6 6 6 7 7
3 3 6 3 2 1 4 1 4 6 7 7 8 11 12 12 12 12 11 10 10 9 7 6 5 6 7 5 4 5 6 6 5 4 4 5 6 5 5 6 6 5 5 6
5 6 4 2 3 3 2 3 3 6 9 12 12 12 12 11 12 11 11 10 8 9 8 6 5 6 7 5 5 6 6 6 5 5 5 5 5 5 4 4 4 3 4 4
3 5 3 3 2 2 2 3 6 9 11 11 12 13 13 12 11 11 10 9 8 9 8 6 5 5 5 6 6 7 6 5 4 5 5 5 4 3 4 3 3 3 3 3
4 4 3 3 3 3 6 8 10 10 9 11 14 14 13 12 11 10 9 7 7 8 7 6 6 5 5 6 7 6 5 5 5 5 5 5 5 4 3 2 1 3 2 2
5 4 2 2 1 3 7 8 10 12 11 10 12 13 12 11 10 9 9 8 8 7 7 6 6 6 5 6 7 7 5 4 4 4 4 4 4 4 8 5 4 4 4 4
3 0 1 2 2 4 6 8 9 10 12 12 10 12 12 11 9 9 9 9 8 8 7 7 6 6 5 6 6 6 6 5 4 3 3 3 3 3 3 5 7 6 4 3
3 3 2 2 3 5 8 10 10 10 10 11 11 11 11 10 10 10 9 8 8 8 7 6 6 5 5 6 6 6 5 5 4 3 3 2 2 2 2 2 2 2 3 1
2 2 4 6 8 8 9 11 12 11 11 10 10 11 11 11 10 9 8 8 8 8 7 6 6 5 5 6 6 6 5 3 3 3 3 2 2 2 2 2 1 0 1 2
3 6 8 10 10 11 11 11 12 12 11 10 10 10 10 10 9 9 8 9 9 8 7 6 6 5 6 6 6 4 3 5 4 3 2 2 2 1 1 1 1 1 1 1
7 7 8 10 10 11 10 10 11 12 12 11 11 11 11 10 9 8 7 6 7 7 6 6 6 5 6 6 6 4 3 3 5 3 2 2 2 2 2 2 2 2 2 2
7 8 9 12 12 11 10 10 11 12 11 11 12 11 11 11 10 8 7 7 6 5 4 5 6 6 6 6 5 4 4 3 3 2 2 2 2 2 2 2 2 2 2 2
7 8 9 9 10 11 11 11 11 10 10 11 12 11 9 9 8 8 8 8 7 6 4 5 7 6 5 5 6 4 4 3 2 2 2 2 1 1 2 2 2 2 2 2
7 9 10 10 10 11 11 10 11 10 10 11 11 10 9 8 8 8 8 7 6 5 6 6 6 5 5 5 6 4 4 3 3 2 2 2 2 2 2 2 3 3 3 2
8 9 11 11 11 10 11 12 12 11 10 11 11 11 9 8 8 8 7 5 4 5 6 8 5 4 4 5 6 4 4 3 3 3 3 3 3 3 3 3 3 3 3 3
7 8 10 11 11 10 9 10 11 11 11 10 10 10 9 9 8 7 6 5 5 8 6 5 4 6 6 6 4 4 4 4 4 3 3 3 3 3 3 4 4 4 4 4
5 7 9 10 11 11 10 10 11 11 12 11 11 11 10 9 8 7 6 4 5 9 6 5 7 9 10 6 4 4 5 5 4 4 4 4 4 4 4 5 4 4 4 4
5 6 7 8 9 11 11 10 10 9 10 10 10 10 10 7 5 5 4 7 9 10 6 7 10 11 10 5 4 4 4 4 4 4 4 4 4 4 4 5 5 5 5 6
5 6 7 9 10 9 10 9 9 8 9 7 8 9 8 7 7 6 6 7 10 10 6 8 11 11 7 5 5 5 5 5 5 4 5 5 5 5 5 5 6 6 6 6
5 6 7 8 7 7 8 8 8 7 8 7 6 6 6 5 6 6 6 7 9 9 7 5 6 8 6 6 6 6 5 5 5 6 6 6 6 6 6 6 8 7 6 7
4 4 4 5 5 7 8 8 8 8 9 8 7 7 7 7 6 7 7 7 7 7 7 6 6 7 7 7 7 6 6 5 6 6 6 6 6 6 7 8 7 6 6 7
Wind_Direction
243 250 241 246 251 205 193 200 205 239 231 232 186 164 152 147 144 143 142 137 131 122 110 96 86 78 75 72 67 72 74 72 71 71 70 68 65 63 63 62 64 65 66 60
316 305 288 269 263 241 222 214 221 245 263 169 132 133 145 152 152 153 150 144 138 131 124 113 105 96 87 80 76 77 77 75 72 73 72 68 66 65 64 61 58 60 59 61
295 314 345 283 259 223 230 219 196 219 216 140 141 155 160 158 157 156 151 146 142 137 130 123 115 109 100 94 89 85 81 79 77 76 77 75 76 70 65 60 60 59 54 60
287 357 260 255 283 191 204 272 217 176 142 148 139 127 127 144 150 149 147 143 137 132 126 120 113 106 103 99 94 91 88 86 83 83 82 80 77 74 68 63 62 60 54 57
133 267 286 297 312 171 181 292 175 139 123 113 114 96 95 125 136 140 139 134 131 130 128 122 115 112 107 101 96 93 91 93 91 91 89 84 81 76 70 71 65 59 54 54
141 202 256 273 310 207 102 301 170 145 145 145 137 139 161 142 130 127 125 126 127 127 123 120 117 113 108 107 103 99 97 97 93 91 91 91 90 82 74 76 72 68 60 51
174 228 269 283 304 61 121 267 176 154 155 153 148 147 136 132 126 127 128 128 129 127 124 123 122 118 113 109 105 103 101 98 90 88 94 97 90 87 91 87 78 69 64 52
161 205 258 328 14 171 230 259 128 138 137 123 113 115 121 126 128 129 128 129 129 127 123 121 122 119 114 108 105 103 100 95 87 80 87 99 97 91 91 92 85 72 67 54
202 223 259 304 265 272 194 144 137 134 128 129 126 128 126 127 130 131 130 130 129 130 126 123 126 125 121 118 112 104 95 90 85 79 76 89 103 106 94 88 90 80 76 67
276 279 297 321 336 356 83 121 126 131 132 133 132 134 131 131 131 130 130 131 130 129 130 129 128 122 123 124 117 108 103 95 86 86 81 73 76 91 106 110 105 100 95 87
271 280 316 2 25 63 85 102 111 114 121 131 133 134 134 134 134 132 128 126 129 131 132 132 128 123 127 128 121 112 105 100 92 88 93 84 72 59 83 88 162 143 137 127
233 233 204 264 119 111 114 121 126 120 115 121 132 134 132 132 131 132 131 129 130 130 131 132 128 126 128 131 128 123 113 106 103 101 95 95 96 75 50 58 85 119 132 135
230 161 124 136 109 106 118 125 124 122 128 128 128 132 131 130 131 131 132 135 138 139 137 133 130 131 136 136 132 130 131 130 122 117 114 106 98 99 79 44 57 74 95 117
201 132 123 137 124 114 117 116 110 109 115 123 128 129 128 127 131 135 139 141 137 134 133 133 133 138 143 139 133 130 131 137 136 136 131 121 111 106 106 99 66 24 21 23
246 173 152 127 116 115 120 121 119 120 122 123 130 134 137 138 140 140 137 134 130 131 135 137 136 140 141 138 134 135 136 136 133 133 133 130 121 114 108 104 105 38 343 336
102 108 122 130 135 136 136 136 135 137 137 135 138 141 140 136 133 132 135 138 140 147 149 145 146 148 141 136 131 130 137 147 139 136 136 137 140 143 147 155 182 226 258 267
144 148 146 148 150 152 151 149 147 145 144 145 145 140 134 131 131 135 141 146 148 149 150 149 151 146 141 141 137 136 133 141 143 139 152 165 170 179 187 194 212 235 252 250
184 174 168 163 159 155 150 146 146 147 147 146 142 140 142 145 149 151 148 137 129 131 150 155 150 143 144 144 140 138 139 143 151 158 165 176 184 189 193 210 233 251 274 286
161 158 154 155 155 152 150 150 150 147 143 143 146 150 151 151 150 147 143 141 147 161 182 169 156 149 151 158 148 143 147 149 152 161 171 180 184 195 204 216 238 255 264 266
152 152 150 148 148 149 150 148 146 146 147 147 145 145 147 151 150 149 149 160 178 179 169 161 160 160 165 166 159 155 163 168 172 178 183 192 210 227 227 230 240 251 252 250
149 151 153 153 152 152 154 152 152 153 152 153 154 159 159 156 154 152 155 174 200 169 160 164 166 170 171 169 168 169 178 182 186 194 203 210 217 230 237 241 247 250 250 249
151 153 157 155 153 154 156 155 155 154 153 157 158 157 154 156 160 162 176 184 180 168 163 171 177 181 177 171 174 182 192 197 200 200 207 213 218 229 239 242 247 251 250 247
154 155 157 160 160 157 153 156 159 159 162 164 165 165 166 167 167 169 189 198 167 173 173 182 189 187 182 177 183 192 199 203 207 210 214 218 222 227 236 243 244 248 250 249
154 155 156 153 146 149 159 165 163 164 165 166 169 169 164 162 173 188 178 172 175 176 185 193 194 192 184 182 188 198 206 212 216 218 222 226 227 229 234 239 245 248 248 250
158 152 148 150 159 167 167 159 154 156 159 163 167 170 171 171 174 183 174 174 179 179 191 198 198 194 188 191 199 207 214 219 221 218 221 225 230 233 236 238 241 245 247 248
166 166 169 172 170 164 160 160 164 167 167 167 171 174 174 171 170 167 171 179 181 187 193 193 189 192 197 202 209 215 220 227 229 225 226 229 234 237 240 241 243 243 246 248
162 155 149 150 157 161 163 167 171 174 175 175 175 178 178 176 174 177 178 181 183 191 197 196 193 195 201 208 214 218 222 226 228 228 229 230 233 237 241 243 243 242 243 247